Shannon, Ireland

1:05 AM IST on July 23, 2017 (GMT +0100)
Shannon

Weather History for EINN - June, 2014

Change the Weather History Date:

Monday, June 23, 2014

  Actual Average Record
Temperature  
Mean Temperature 64 °F -  
Max Temperature 71 °F 66 °F 71 °F (2014)
Min Temperature 56 °F 53 °F 39 °F (2000)
Degree Days  
Heating Degree Days 2    
Growing Degree Days 14 (Base 50)    
Moisture  
Dew Point 52 °F    
Average Humidity 67    
Maximum Humidity 88    
Minimum Humidity 36    
Precipitation  
Precipitation 0.00 in 0.08 in - ()
Sea Level Pressure  
Sea Level Pressure 30.28 in    
Wind  
Wind Speed 5 mph ()    
Max Wind Speed 9 mph    
Max Gust Speed -    
Visibility 8.3 miles    
Events      
Averages and records for this station are not official NWS values.
T = Trace of Precipitation, MM = Missing Value Source: Averaged Metar Reports

Daily Weather History Graph

Daily Weather History Graph

Search for Another Location

Airport or City:

Trip Planner

Search our weather history database for the weather conditions in past years. The results will help you decide how hot, cold, wet, or windy it might be!

Date:

Astronomy

Jun. 23, 2014 Rise Set
Actual Time 5:11 AM IST 10:03 PM IST
Civil Twilight 4:21 AM IST 10:54 PM IST
Nautical Twilight 2:55 AM IST 12:19 AM IST
Astronomical Twilight Sun does not set Sun does not set
Moon 2:55 AM IST 6:09 PM IST
Length of Visible Light 18h 33m
Length of Day
16h 52m
Waning Crescent, 14% of the Moon is Illuminated
Jun 23
Waning Crescent
Jun 27
New
Jul 5
First Quarter
Jul 12
Full
Jul 19
Last Quarter

Hourly Weather History & Observations

Time (IST) Temp. Dew Point Humidity Pressure Visibility Wind Dir Wind Speed Gust Speed Precip Events Conditions
12:00 AM 59 °F 53 °F 73% 30.29 in 19 mi North 4.5 mph - -   Mostly Cloudy
12:00 AM 59.0 °F 51.8 °F 77% 30.27 in 6.2 mi North 4.6 mph - N/A   Mostly Cloudy
12:30 AM 57.2 °F 51.8 °F 82% 30.27 in 6.2 mi North 4.6 mph - N/A   Mostly Cloudy
1:00 AM 56 °F 52 °F 82% 30.28 in 19 mi NNW 4.5 mph - -   Mostly Cloudy
1:00 AM 57.2 °F 51.8 °F 82% 30.27 in 6.2 mi NNW 4.6 mph - N/A   Mostly Cloudy
1:30 AM 57.2 °F 51.8 °F 82% 30.27 in 6.2 mi North 4.6 mph - N/A   Mostly Cloudy
2:00 AM 57 °F 53 °F 80% 30.29 in 19 mi North 2.2 mph - -   Mostly Cloudy
2:00 AM 57.2 °F 51.8 °F 82% 30.27 in 6.2 mi North 2.3 mph - N/A   Mostly Cloudy
2:30 AM 57.2 °F 53.6 °F 88% 30.27 in 6.2 mi NNW 2.3 mph - N/A   Mostly Cloudy
3:00 AM 57 °F 53 °F 82% 30.29 in 19 mi North 2.2 mph - -   Mostly Cloudy
3:00 AM 57.2 °F 53.6 °F 88% 30.27 in 6.2 mi North 2.3 mph - N/A   Mostly Cloudy
3:30 AM 57.2 °F 53.6 °F 88% 30.27 in 6.2 mi North 3.5 mph - N/A   Mostly Cloudy
4:00 AM 56 °F 53 °F 88% 30.28 in 19 mi NNW 4.5 mph - -   Mostly Cloudy
4:00 AM 57.2 °F 53.6 °F 88% 30.27 in 6.2 mi NNW 3.5 mph - N/A   Mostly Cloudy
4:30 AM 57.2 °F 53.6 °F 88% 30.27 in 6.2 mi NNW 4.6 mph - N/A   Mostly Cloudy
5:00 AM 57 °F 53 °F 84% 30.28 in 19 mi North 4.5 mph - -   Mostly Cloudy
5:00 AM 57.2 °F 53.6 °F 88% 30.27 in 6.2 mi North 3.5 mph - N/A   Mostly Cloudy
5:30 AM 57.2 °F 53.6 °F 88% 30.27 in 6.2 mi NNW 6.9 mph - N/A   Mostly Cloudy
6:00 AM 57 °F 53 °F 84% 30.29 in 19 mi NNW 6.7 mph - -   Mostly Cloudy
6:00 AM 57.2 °F 53.6 °F 88% 30.27 in 6.2 mi NNW 5.8 mph - N/A   Mostly Cloudy
6:30 AM 57.2 °F 53.6 °F 88% 30.27 in 6.2 mi NW 6.9 mph - N/A   Mostly Cloudy
7:00 AM 57 °F 54 °F 84% 30.30 in 19 mi NNW 6.7 mph - -   Mostly Cloudy
7:00 AM 57.2 °F 53.6 °F 88% 30.27 in 6.2 mi NNW 6.9 mph - N/A   Mostly Cloudy
7:30 AM 57.2 °F 53.6 °F 88% 30.30 in 6.2 mi NNW 6.9 mph - N/A   Mostly Cloudy
8:00 AM 58 °F 54 °F 83% 30.31 in 25 mi North 6.7 mph - -   Mostly Cloudy
8:00 AM 59.0 °F 53.6 °F 82% 30.30 in 6.2 mi North 5.8 mph - N/A   Mostly Cloudy
8:30 AM 59.0 °F 55.4 °F 88% 30.30 in 6.2 mi North 5.8 mph - N/A   Mostly Cloudy
9:00 AM 61 °F 55 °F 73% 30.32 in 25 mi North 6.7 mph - -   Mostly Cloudy
9:00 AM 60.8 °F 55.4 °F 82% 30.30 in 6.2 mi North 6.9 mph - N/A   Mostly Cloudy
9:30 AM 62.6 °F 55.4 °F 77% 30.30 in 6.2 mi NNE 6.9 mph - N/A   Mostly Cloudy
10:00 AM 63 °F 54 °F 66% 30.32 in 25 mi NNE 4.5 mph - -   Mostly Cloudy
10:00 AM 62.6 °F 53.6 °F 72% 30.30 in 6.2 mi NNE 4.6 mph - N/A   Mostly Cloudy
10:30 AM 64.4 °F 53.6 °F 68% 30.30 in 6.2 mi NE 5.8 mph - N/A   Mostly Cloudy
11:00 AM 65 °F 53 °F 55% 30.31 in 31 mi NE 6.7 mph - -   Mostly Cloudy
11:00 AM 64.4 °F 51.8 °F 64% 30.30 in 6.2 mi NE 6.9 mph - N/A   Mostly Cloudy
11:30 AM 66.2 °F 53.6 °F 64% 30.30 in 6.2 mi NE 5.8 mph - N/A   Scattered Clouds
12:00 PM 66 °F 53 °F 52% 30.30 in 31 mi NE 6.7 mph - -   Mostly Cloudy
12:00 PM 66.2 °F 51.8 °F 60% 30.30 in 6.2 mi NE 6.9 mph - N/A   Scattered Clouds
12:30 PM 68.0 °F 51.8 °F 56% 30.30 in 6.2 mi NNE 6.9 mph - N/A   Mostly Cloudy
1:00 PM 69 °F 48 °F 36% 30.30 in 31 mi NNE 6.7 mph - -   Mostly Cloudy
1:00 PM 69.8 °F 48.2 °F 46% 30.30 in 6.2 mi NNE 5.8 mph - N/A   Scattered Clouds
1:30 PM 68.0 °F 53.6 °F 60% 30.30 in 6.2 mi NE 6.9 mph - N/A   Mostly Cloudy
2:00 PM 69 °F 49 °F 38% 30.30 in 31 mi ENE 6.7 mph - -   Mostly Cloudy
2:00 PM 68.0 °F 48.2 °F 49% 30.27 in 6.2 mi ENE 5.8 mph - N/A   Scattered Clouds
2:30 PM 69.8 °F 50.0 °F 49% 30.27 in 6.2 mi Variable 3.5 mph - N/A   Mostly Cloudy
3:00 PM 69 °F 49 °F 39% 30.29 in 37 mi SSW 4.5 mph - -   Partly Cloudy
3:00 PM 69.8 °F 50.0 °F 49% 30.27 in 6.2 mi SSW 4.6 mph - N/A   Scattered Clouds
3:30 PM 69.8 °F 50.0 °F 49% 30.27 in 6.2 mi West 6.9 mph - N/A   Scattered Clouds
4:00 PM 69 °F 49 °F 38% 30.28 in 37 mi NNE 8.9 mph - -   Mostly Cloudy
4:00 PM 68.0 °F 50.0 °F 52% 30.27 in 6.2 mi NNE 8.1 mph - N/A   Mostly Cloudy
4:30 PM 68.0 °F 50.0 °F 52% 30.27 in 6.2 mi NNE 5.8 mph - N/A   Mostly Cloudy
5:00 PM 70 °F 51 °F 41% 30.28 in 37 mi WNW 4.5 mph - -   Mostly Cloudy
5:00 PM 69.8 °F 51.8 °F 53% 30.27 in 6.2 mi WNW 3.5 mph - N/A   Mostly Cloudy
5:30 PM 69.8 °F 50.0 °F 49% 30.27 in 6.2 mi NNW 4.6 mph - N/A   Mostly Cloudy
6:00 PM 69 °F 50 °F 40% 30.28 in 37 mi NW 4.5 mph - -   Scattered Clouds
6:00 PM 69.8 °F 50.0 °F 49% 30.27 in 6.2 mi NW 4.6 mph - N/A   Mostly Cloudy
6:30 PM 68.0 °F 50.0 °F 52% 30.27 in 6.2 mi West 4.6 mph - N/A   Mostly Cloudy
7:00 PM 68 °F 51 °F 44% 30.27 in 37 mi WNW 6.7 mph - -   Scattered Clouds
7:00 PM 68.0 °F 51.8 °F 56% 30.27 in 6.2 mi WNW 6.9 mph - N/A   Mostly Cloudy
7:30 PM 68.0 °F 50.0 °F 52% 30.24 in 6.2 mi NNE 9.2 mph - N/A   Scattered Clouds
8:00 PM 68 °F 50 °F 42% 30.27 in 37 mi NNW 8.9 mph - -   Scattered Clouds
8:00 PM 68.0 °F 50.0 °F 52% 30.27 in 6.2 mi NNW 8.1 mph - N/A   Partly Cloudy
8:30 PM 66.2 °F 51.8 °F 60% 30.24 in 6.2 mi NNW 6.9 mph - N/A   Partly Cloudy
9:00 PM 67 °F 53 °F 50% 30.27 in 31 mi NNW 6.7 mph - -   Scattered Clouds
9:00 PM 66.2 °F 53.6 °F 64% 30.27 in 6.2 mi NNW 6.9 mph - N/A   Partly Cloudy
9:30 PM 64.4 °F 53.6 °F 68% 30.27 in 6.2 mi NNW 5.8 mph - N/A   Partly Cloudy
10:00 PM 62 °F 53 °F 64% 30.28 in 31 mi NW 6.7 mph - -   Scattered Clouds
10:00 PM 62.6 °F 53.6 °F 72% 30.27 in - NW 6.9 mph - N/A   Clear
11:00 PM 60 °F 54 °F 74% 30.29 in 19 mi NW 4.5 mph - -   Partly Cloudy
11:00 PM 59.0 °F 53.6 °F 82% 30.27 in 6.2 mi NW 4.6 mph - N/A   Scattered Clouds
11:30 PM 59.0 °F 53.6 °F 82% 30.27 in 6.2 mi NW 6.9 mph - N/A   Scattered Clouds